Theta_e
352 351 350 350 348 347 348 350 350 352 353 352 352 352 351 355 363 372 377 371 355 346 350 352 354 352 348 349 354 356 358 359 358 357 355 354 351 349 353 356 354 354 356 357 356 352 349 349 349 347 343 340 337 333 327 322 321 321 321 321 320 318 318 317 318 319 323 327 330 331 330 329 330 331
351 351 351 350 348 347 348 348 348 349 350 350 351 353 351 352 355 360 369 372 361 351 353 354 354 352 349 350 352 352 357 359 359 357 355 355 352 351 352 354 355 355 356 357 357 354 350 348 349 350 348 346 342 339 334 327 323 321 322 321 320 319 319 317 317 319 323 327 331 332 331 331 332 333
351 351 351 351 351 349 349 349 350 349 348 348 349 351 351 352 352 353 360 366 361 354 355 354 352 353 352 352 352 352 355 355 356 356 356 354 354 353 354 355 355 355 356 357 357 356 352 348 348 349 350 350 347 344 341 335 328 323 321 322 321 319 319 318 317 319 323 327 331 332 332 333 335 336
353 352 351 351 351 351 350 350 351 351 351 351 350 350 351 352 353 351 353 358 356 351 353 355 353 353 353 352 352 352 352 353 355 356 356 355 353 354 355 356 357 356 356 357 357 357 354 350 350 350 350 351 350 348 345 341 336 330 324 321 321 320 319 319 317 318 322 326 330 333 333 333 336 337
354 355 353 350 350 351 351 351 351 351 352 353 352 351 351 353 353 351 350 354 355 349 345 349 351 352 355 354 351 352 353 354 355 355 355 354 354 356 356 355 357 356 356 357 357 357 355 352 351 351 352 352 350 350 348 345 342 338 331 324 321 321 320 319 318 317 321 326 330 333 333 334 335 337
357 358 356 352 350 350 351 351 351 351 351 353 354 352 351 352 353 352 351 352 355 352 345 342 345 349 354 355 354 355 356 356 354 354 355 356 356 356 354 354 356 355 355 356 356 356 355 353 353 352 353 353 352 351 350 348 346 344 340 333 324 321 320 320 318 317 320 325 329 332 334 334 335 337
358 358 358 356 353 352 352 353 352 351 350 352 354 354 353 352 351 352 353 352 353 354 351 347 346 347 351 354 355 356 355 353 352 354 356 357 356 355 354 356 356 354 355 356 356 356 355 354 354 353 353 353 352 351 351 350 348 346 345 341 331 323 320 320 318 317 318 323 328 332 334 335 334 336
359 358 358 357 356 355 354 355 355 353 352 351 352 353 353 352 351 350 350 351 352 354 353 353 352 351 350 350 350 351 351 350 351 356 358 357 355 353 353 354 353 353 356 357 356 355 356 355 354 354 354 354 353 353 351 351 351 349 346 346 340 329 322 320 320 317 317 321 327 331 333 335 335 336
360 359 358 358 358 358 357 357 357 356 354 352 351 351 351 352 352 352 351 351 353 355 355 354 354 355 354 352 352 355 355 353 355 360 361 359 357 354 353 351 352 356 358 356 355 356 356 355 355 355 355 355 354 354 352 351 352 351 347 346 345 337 326 321 320 319 316 320 326 330 333 335 335 335
359 360 359 358 358 358 358 358 358 357 356 354 352 352 351 351 352 353 353 352 353 354 355 356 356 355 355 355 356 356 355 356 358 361 361 360 359 357 355 352 354 357 357 354 354 355 356 356 356 356 355 355 355 354 354 352 352 352 349 346 346 343 332 323 320 320 317 318 325 330 332 334 334 334
358 358 358 358 358 357 357 357 357 357 356 355 355 354 354 354 354 353 353 353 352 352 352 353 353 353 354 357 358 356 357 360 362 361 361 361 357 354 355 356 358 358 355 354 354 354 355 356 357 357 355 355 354 354 354 353 352 353 350 347 346 346 338 327 321 320 318 317 323 330 332 333 333 334
358 358 358 358 357 356 356 356 356 356 356 356 356 355 356 356 355 354 354 354 354 355 355 354 354 355 356 357 359 359 360 362 361 359 358 357 354 353 355 358 359 359 354 353 354 352 352 353 355 356 355 354 355 354 354 354 352 353 352 348 346 347 342 331 324 321 319 317 321 328 332 332 332 333
357 357 357 357 357 356 356 355 355 355 355 355 355 355 356 356 356 355 355 356 356 356 357 358 358 360 360 360 361 361 361 362 360 357 355 355 355 357 359 359 358 356 354 355 355 350 349 351 353 354 354 354 356 356 355 355 354 353 353 349 347 348 344 334 327 323 319 317 320 326 331 331 332 333
355 355 354 354 355 355 355 354 355 355 354 354 353 353 355 356 356 356 356 356 357 357 357 357 359 361 362 362 362 362 361 360 357 355 355 356 357 358 361 361 358 356 355 356 353 346 345 351 353 354 355 355 356 357 357 357 357 356 353 350 347 348 345 336 329 326 321 317 319 324 330 331 332 334
354 353 352 352 351 351 351 352 352 353 353 352 352 352 353 354 355 356 357 358 358 358 358 358 358 360 362 361 361 361 360 358 356 355 355 355 355 357 359 360 358 356 354 354 351 345 345 351 355 355 356 356 356 355 355 357 358 357 354 351 348 348 346 338 332 330 324 318 318 322 328 331 332 334
352 351 351 351 350 349 349 349 348 350 350 351 351 351 351 352 353 354 356 357 359 360 361 361 360 361 361 361 361 361 360 358 357 356 357 357 355 355 356 357 356 353 351 351 351 350 348 352 356 356 355 354 354 354 355 357 359 357 355 352 349 348 347 340 335 332 327 319 318 321 326 330 332 334
351 350 349 350 349 349 348 347 347 347 348 349 350 351 351 351 352 352 353 354 356 359 360 362 362 361 361 362 361 359 359 359 357 357 358 358 357 356 356 356 354 350 349 352 355 357 355 355 357 355 351 351 353 354 356 357 357 357 356 353 349 349 348 343 337 334 329 322 318 320 325 330 332 334
352 350 349 350 349 348 347 346 344 345 346 347 348 350 351 352 351 352 352 351 353 354 356 359 359 358 359 360 359 358 359 360 359 360 360 359 359 359 357 355 353 349 350 355 360 362 359 354 355 353 350 351 354 356 358 357 354 354 355 353 350 349 348 344 339 335 331 324 319 319 324 329 332 333
352 351 349 349 349 349 348 347 345 344 345 345 346 347 350 351 351 352 352 351 351 351 351 353 353 352 352 352 352 352 354 357 357 357 359 359 358 357 355 355 354 352 352 357 362 363 358 352 353 354 351 353 356 356 358 358 354 353 353 352 350 349 348 344 339 336 332 326 320 319 323 328 332 334
351 351 349 348 348 348 348 347 347 347 346 346 346 346 347 349 351 351 351 351 352 352 352 352 352 352 350 348 345 344 345 347 348 351 355 355 352 353 355 356 355 354 355 357 360 362 358 354 355 356 352 353 356 357 358 358 356 353 352 351 349 348 347 344 339 336 332 327 321 318 322 328 332 334
350 350 349 347 346 346 346 346 346 347 348 347 347 347 347 348 350 350 350 351 353 353 354 355 355 355 355 352 349 347 345 344 343 348 352 351 348 351 354 356 357 356 357 358 360 362 360 356 355 355 352 353 356 358 359 359 357 354 351 350 348 346 346 344 338 335 332 327 321 319 320 326 332 335
349 348 347 345 344 343 343 344 345 346 347 347 348 348 348 350 352 352 352 354 356 356 357 358 359 360 360 358 356 354 353 351 348 348 349 348 347 349 352 354 356 356 356 355 356 359 359 355 354 354 354 357 358 359 360 359 357 354 351 349 347 345 346 343 337 335 332 325 321 319 319 324 331 335
351 350 348 346 344 343 342 342 343 344 345 346 346 347 348 351 352 351 353 356 359 360 360 361 361 361 360 359 358 356 355 355 353 351 349 347 347 348 349 351 352 353 353 350 350 353 353 351 351 352 356 361 360 358 359 359 356 354 352 349 347 346 345 341 337 335 332 324 319 319 319 323 330 334
352 352 351 350 347 346 345 345 344 344 344 345 346 346 348 349 348 347 349 352 353 354 355 355 355 356 355 355 355 354 353 354 354 354 354 352 350 349 348 350 351 352 351 349 349 350 349 349 349 348 353 359 359 357 356 356 355 354 352 350 349 348 346 342 338 337 334 326 320 319 320 323 328 332
353 353 353 352 351 350 350 349 349 348 348 348 348 348 348 347 345 345 347 349 349 350 351 350 351 352 353 353 353 352 351 352 351 352 354 354 354 351 350 350 351 351 352 351 350 351 350 349 349 348 350 356 358 357 355 353 353 353 352 351 350 348 346 344 341 339 336 330 323 321 321 324 328 331
354 355 355 355 354 354 353 353 353 353 353 352 352 352 351 349 348 347 348 348 349 350 350 350 351 352 352 353 353 352 351 351 352 353 354 354 355 355 354 353 353 353 353 351 351 352 351 350 349 348 348 351 354 355 355 353 353 353 351 350 349 347 346 344 341 340 338 333 327 324 323 324 329 331
355 356 357 358 357 357 356 356 356 356 356 357 356 356 355 353 352 350 350 350 351 351 352 352 352 352 352 352 352 352 352 352 354 356 356 356 356 356 356 357 356 356 355 354 353 353 352 350 349 349 348 350 352 354 355 355 354 354 352 352 351 348 345 343 341 341 340 335 330 329 325 324 328 331
353 354 356 358 359 359 359 359 358 358 358 359 359 359 358 356 355 352 351 351 351 351 352 354 354 354 354 354 353 353 353 352 353 355 357 358 359 359 359 359 359 359 359 359 358 357 355 352 351 350 349 351 353 355 355 355 356 356 355 353 351 348 347 344 342 341 341 336 332 331 328 323 325 330
353 353 354 355 356 357 358 359 359 359 359 358 358 359 358 357 356 355 355 355 353 352 352 354 355 355 355 355 355 354 354 354 354 354 355 357 358 360 361 361 361 361 361 361 360 360 359 356 355 353 352 352 355 357 357 357 356 357 356 354 352 351 350 347 343 342 341 337 332 332 330 325 323 326
354 354 354 354 354 354 355 356 356 357 357 357 356 356 356 356 356 356 356 356 355 353 353 353 354 355 355 355 355 355 355 356 355 355 355 354 354 355 356 358 359 360 360 360 360 360 359 358 357 355 354 355 357 359 359 358 358 358 358 357 354 351 350 348 345 342 341 338 334 333 332 328 325 326
354 354 354 354 354 353 353 353 353 354 354 354 354 353 352 353 353 354 355 355 354 354 354 354 355 355 355 355 356 356 356 356 356 356 355 355 354 354 353 353 354 355 355 356 357 358 359 359 358 357 355 356 357 358 359 360 360 359 359 359 356 353 352 350 346 343 341 339 335 333 332 330 328 329
352 352 352 352 353 353 353 353 353 353 353 352 352 351 350 350 350 351 353 353 353 353 354 354 355 355 355 356 356 356 357 356 356 356 355 355 354 354 354 353 352 352 352 352 353 354 356 357 358 358 357 356 357 358 359 360 362 361 360 360 358 356 355 352 349 345 341 338 334 333 332 330 328 329
347 348 348 349 351 352 353 353 353 353 352 351 350 349 350 349 350 350 351 351 352 352 353 353 354 355 356 356 357 357 357 357 356 356 355 355 355 355 354 354 354 353 353 352 352 353 353 355 356 358 358 358 357 357 357 359 360 360 360 360 359 358 355 353 350 347 342 337 333 333 332 330 328 329
342 342 342 344 346 348 350 351 352 352 352 351 351 350 350 350 351 352 351 351 351 351 352 353 354 354 355 356 356 356 356 356 356 356 356 355 355 355 355 355 355 355 355 354 354 354 354 354 356 358 360 360 359 357 357 358 358 359 360 360 360 360 358 356 352 347 343 340 336 333 331 330 330 330
341 340 339 341 344 346 347 349 350 351 352 353 353 354 352 350 351 352 353 353 353 352 352 353 353 354 355 355 356 356 356 356 355 355 355 355 355 355 355 355 355 356 356 356 356 356 356 356 357 361 362 361 361 360 359 359 359 360 360 360 361 361 360 358 354 348 343 340 336 333 331 331 331 331
343 342 340 341 344 345 347 349 349 350 351 352 353 353 353 352 352 353 353 354 355 354 354 354 354 354 354 355 355 355 355 355 354 354 355 355 355 355 355 355 355 355 356 357 357 358 358 358 359 361 361 362 363 363 362 361 362 362 361 361 362 361 360 360 356 349 343 340 336 333 332 332 332 332
343 344 342 342 344 345 347 348 349 349 350 350 351 352 352 353 354 354 354 354 355 355 355 355 355 355 355 355 355 355 354 354 354 354 354 354 355 355 355 355 356 356 356 357 357 358 359 359 359 360 360 361 364 364 362 362 362 363 363 363 362 361 361 360 355 348 343 340 337 335 334 334 334 334
341 343 342 342 344 345 347 348 349 350 351 351 351 351 351 352 353 354 353 353 353 353 353 353 353 353 353 354 355 355 354 355 354 354 354 354 354 355 355 355 355 354 354 355 355 357 358 356 356 356 353 353 359 363 363 361 361 362 362 362 362 362 361 359 355 351 346 342 339 338 337 335 335 336
342 343 344 344 345 345 346 348 349 350 351 351 351 352 352 352 353 353 353 352 352 352 352 352 352 352 352 352 352 352 353 354 354 355 355 355 355 355 354 353 352 352 352 351 351 354 355 354 354 353 351 350 355 359 357 354 355 358 360 360 361 361 360 359 357 354 350 346 342 338 335 334 334 335
341 342 343 344 345 346 347 348 350 351 352 353 353 353 352 353 353 353 353 353 353 353 352 352 352 352 351 351 351 351 352 353 354 355 355 355 354 353 352 351 350 349 350 350 350 351 352 353 354 355 355 355 356 355 352 352 354 356 358 358 359 359 360 359 358 354 352 350 345 338 334 333 333 333
335 334 335 336 337 338 339 341 344 346 349 351 353 354 354 355 354 354 355 355 354 354 353 352 352 352 352 352 352 352 352 353 353 354 354 353 352 352 351 350 350 349 349 349 350 350 351 353 353 355 358 359 357 353 351 352 353 354 356 358 358 359 358 358 358 356 354 352 346 338 334 334 334 333
326 326 327 328 329 329 329 330 332 335 338 341 343 346 349 353 355 356 356 356 355 354 353 353 353 352 353 353 353 353 353 353 352 352 352 351 351 350 350 350 349 349 349 349 350 352 352 353 352 353 355 357 356 351 349 349 350 352 355 357 358 359 358 358 357 356 356 354 349 341 337 334 333 332
320 320 321 322 323 323 324 325 327 328 330 331 333 335 338 343 347 351 352 353 353 353 353 353 353 353 354 354 354 354 353 352 352 351 351 350 350 350 350 350 350 350 349 350 351 352 352 352 352 351 353 354 354 351 348 349 350 352 354 356 357 357 358 357 357 356 356 356 353 349 346 342 338 336
316 315 315 317 318 318 319 322 323 324 325 326 327 329 331 334 338 341 344 346 348 349 351 352 353 354 354 354 353 353 352 351 351 352 351 350 351 351 351 350 350 350 350 350 351 351 351 351 351 351 353 354 353 351 349 349 349 351 353 355 356 357 356 356 356 356 356 356 354 351 350 348 347 347
313 312 312 313 313 314 316 317 319 320 321 322 323 325 327 329 331 333 335 337 341 344 347 349 350 350 350 350 350 350 350 350 351 351 351 351 352 352 351 351 351 351 352 352 352 352 352 351 351 351 352 353 352 350 349 349 349 350 351 352 353 355 355 355 355 355 355 355 355 353 350 350 349 348
Wind_Speed
8 6 6 6 6 6 5 5 4 4 4 3 4 6 7 4 1 1 3 3 3 3 1 5 7 4 3 3 4 5 6 6 7 9 9 11 12 11 10 11 12 12 12 11 10 10 10 8 8 9 9 9 9 10 10 11 11 13 15 17 20 21 22 23 23 22 20 19 18 16 13 11 10 9
10 8 8 8 7 7 6 5 4 5 6 5 3 2 4 4 2 1 0 3 4 6 8 4 1 3 5 5 7 7 6 7 8 8 9 11 12 12 11 12 13 14 14 13 11 11 10 9 9 9 9 9 10 10 10 11 12 13 15 17 19 21 22 23 24 22 20 19 18 17 14 10 9 8
11 9 8 8 8 7 6 6 5 6 7 7 6 4 2 3 2 1 1 1 4 7 10 9 6 7 8 8 6 4 4 6 7 8 8 10 12 14 14 15 16 16 16 15 12 11 11 9 9 9 9 9 10 10 10 11 13 14 15 17 19 21 22 24 24 23 21 19 18 18 15 10 8 8
10 10 9 8 8 7 7 8 7 7 7 8 6 5 5 5 5 6 4 3 9 13 11 9 9 9 10 9 6 5 6 7 8 8 9 12 14 17 17 17 17 17 17 15 13 12 12 10 10 10 10 10 10 11 11 11 13 15 16 18 19 21 22 23 24 23 21 19 18 18 16 11 8 9
11 10 11 11 10 9 9 11 10 7 6 8 7 6 7 7 8 9 8 6 11 15 13 10 10 9 9 10 9 8 7 7 8 10 12 13 14 15 17 17 15 14 15 15 13 13 12 12 11 10 11 11 10 10 11 11 12 14 17 18 19 21 22 23 24 23 21 20 18 17 16 12 8 8
13 11 11 12 12 11 11 11 12 11 8 8 9 9 10 10 10 10 11 10 10 14 15 13 13 11 10 11 10 9 8 10 11 12 14 14 12 13 17 16 13 13 15 15 14 13 13 13 13 13 12 12 11 10 10 11 11 13 16 18 19 20 22 23 23 23 21 20 19 16 15 13 9 8
14 12 10 10 12 12 12 12 12 12 12 11 11 11 11 13 13 12 12 13 13 15 15 14 15 13 12 12 12 12 13 14 14 14 14 13 12 13 15 15 15 16 17 15 13 13 14 14 15 15 15 13 12 11 10 11 11 12 14 17 19 20 21 22 23 23 22 21 19 16 14 13 11 8
14 15 12 11 10 10 11 12 12 12 12 13 14 13 11 11 13 15 16 16 17 17 15 14 15 14 14 16 16 15 16 17 15 13 13 14 14 14 14 15 16 17 16 14 15 15 15 15 16 17 17 16 15 13 12 11 11 11 12 15 18 19 20 22 22 23 22 21 20 17 14 13 11 8
14 15 15 13 12 12 12 13 13 13 13 13 14 15 14 12 12 14 16 16 15 16 15 15 16 16 16 18 19 18 18 18 16 13 14 16 17 16 15 15 15 15 15 15 16 17 16 16 17 17 18 18 17 16 14 13 12 11 11 13 16 18 19 21 22 22 22 21 20 17 15 13 11 9
14 15 15 15 15 14 14 14 14 14 14 14 14 15 15 14 13 12 13 12 12 14 15 15 17 18 18 19 21 20 18 19 20 18 19 19 18 17 16 13 13 14 15 16 17 18 19 19 19 19 18 18 18 18 17 16 15 13 11 11 14 16 18 20 21 22 22 21 20 17 15 13 11 9
15 15 16 16 16 16 16 15 15 14 14 15 15 14 14 15 15 14 13 12 12 14 16 18 19 21 20 20 21 21 19 19 19 19 20 20 20 20 18 15 14 15 16 16 17 18 20 21 22 21 20 19 19 19 19 18 17 15 13 11 12 15 17 18 20 21 21 20 19 17 15 13 11 9
17 17 17 18 18 17 17 17 16 16 16 16 16 16 16 16 16 17 16 15 14 14 16 19 20 21 21 21 20 20 19 18 17 18 19 20 22 24 21 18 16 15 16 17 17 18 20 22 23 22 20 20 19 20 20 19 19 17 15 12 11 13 15 16 18 20 20 20 18 16 14 14 12 10
20 19 19 20 20 19 19 18 18 18 18 19 19 19 18 17 17 18 18 18 17 16 16 17 17 17 19 20 20 19 18 17 19 22 23 23 25 25 23 19 17 16 17 18 18 19 20 21 21 21 21 21 21 21 21 21 21 19 16 14 11 12 14 14 16 18 19 19 18 16 14 13 13 11
21 21 20 20 20 20 21 21 21 20 20 20 21 20 19 19 19 19 20 20 20 20 19 19 18 17 18 20 19 18 19 19 21 25 25 23 23 23 21 19 19 19 19 19 21 23 22 20 21 22 23 24 24 24 23 23 22 20 17 15 13 11 12 13 14 17 18 18 17 15 14 13 13 12
23 22 22 21 21 21 21 22 22 23 23 23 23 22 22 22 21 21 22 22 22 21 21 21 20 18 20 22 21 21 22 22 22 24 23 19 16 15 15 15 16 17 16 17 21 25 24 22 22 23 24 24 25 25 24 23 23 21 18 16 14 12 11 12 13 16 17 17 16 15 13 12 12 12
25 24 23 23 22 22 21 21 22 25 27 27 27 26 25 25 24 24 24 23 23 22 21 21 21 21 23 24 24 23 23 21 20 21 20 17 14 14 13 14 16 18 19 19 22 26 27 24 23 25 27 26 25 25 23 22 24 22 19 17 15 12 11 11 12 14 16 17 16 14 13 12 12 12
28 27 27 25 25 24 23 22 22 23 25 27 29 30 29 28 28 27 27 26 25 25 24 23 24 25 25 25 27 27 24 22 22 22 22 21 20 19 18 19 23 26 25 22 21 24 26 25 25 28 28 26 24 23 21 21 22 21 20 18 16 14 12 11 11 13 15 16 16 14 13 12 12 12
29 29 29 28 28 27 26 25 24 23 22 22 25 29 32 32 31 30 30 30 29 29 29 28 29 30 30 30 31 30 27 24 23 23 23 23 22 23 24 26 29 30 29 24 19 20 26 28 28 28 26 23 23 22 20 20 19 17 18 19 17 15 13 11 11 12 13 15 15 14 12 12 11 11
30 30 30 30 30 29 28 28 27 26 25 23 22 24 28 31 33 34 33 32 32 32 33 33 34 34 35 35 36 35 33 31 29 28 27 26 24 26 28 29 30 32 31 27 20 20 28 29 27 27 26 24 24 23 20 19 18 16 17 18 18 17 14 12 11 11 12 14 14 14 12 11 11 10
32 31 31 31 31 31 30 29 28 27 27 27 26 25 26 27 30 32 33 32 33 33 33 34 34 34 35 35 36 37 37 36 37 35 32 29 28 27 27 27 29 31 32 29 24 23 27 29 26 26 26 25 25 24 22 20 19 17 17 18 18 18 15 13 12 10 11 12 13 13 12 11 10 10
35 33 33 32 32 32 32 31 30 28 27 28 29 29 28 28 29 31 31 31 32 33 33 33 33 32 31 30 30 32 32 34 36 34 31 31 31 26 21 22 26 29 30 31 26 22 25 28 27 27 29 28 26 25 23 22 20 19 18 19 19 19 17 15 13 11 11 12 12 12 12 11 10 9
36 36 35 34 33 33 32 31 30 29 29 29 30 30 29 29 30 32 32 30 30 31 31 31 30 29 28 28 29 30 29 30 32 34 34 33 30 24 20 22 25 26 31 35 28 21 25 28 27 26 25 23 24 25 23 22 21 20 20 20 21 20 18 16 14 13 12 12 12 12 12 11 9 9
36 37 38 37 36 35 34 33 31 30 30 31 32 33 31 30 33 35 33 30 30 29 29 29 29 29 29 29 29 29 29 28 30 33 36 35 31 27 25 26 21 15 24 35 29 20 24 27 25 23 18 12 15 20 22 22 22 22 22 23 22 22 20 19 17 15 13 12 12 11 11 10 9 9
34 35 36 38 39 39 38 37 36 34 33 32 34 35 34 34 38 39 33 30 31 32 31 31 31 31 31 30 30 30 29 29 30 31 33 34 34 33 30 29 23 17 26 37 30 20 22 24 23 23 20 12 11 14 17 19 20 21 23 24 23 23 22 21 20 17 14 13 13 12 10 10 10 10
31 33 34 36 38 39 40 40 40 39 38 36 36 36 38 40 42 40 35 32 33 33 33 34 34 33 32 31 30 30 30 30 30 30 31 32 34 35 34 32 28 27 34 41 36 27 25 25 24 24 22 18 17 16 15 16 18 20 22 23 23 24 24 24 22 19 16 14 14 13 11 10 10 12
29 30 32 34 36 37 38 38 39 39 38 38 39 40 41 42 42 40 37 35 33 32 33 34 34 33 31 30 29 29 30 30 30 31 32 32 32 34 36 35 34 34 36 37 36 33 30 28 29 28 23 22 23 20 17 17 17 18 20 22 24 25 25 25 23 21 18 17 15 14 12 10 11 13
29 28 28 29 31 33 35 36 36 35 35 35 37 39 40 41 41 41 39 36 33 32 33 34 34 34 32 31 30 30 29 28 28 29 31 33 33 34 35 35 35 36 36 33 33 35 33 30 31 30 28 26 23 18 18 19 17 17 20 23 24 25 26 27 25 23 21 18 16 16 14 13 13 14
31 30 29 28 28 28 29 30 31 31 31 32 33 35 37 39 39 39 39 37 34 32 32 33 34 35 34 32 32 31 30 28 27 27 28 30 33 34 35 36 35 35 35 34 34 36 36 34 34 33 32 30 25 20 20 21 20 20 21 21 22 25 28 28 27 26 23 21 19 20 19 16 15 15
29 31 32 32 32 30 28 27 28 28 28 28 28 30 32 34 35 34 35 36 33 31 31 33 34 35 35 34 34 33 32 31 30 30 30 30 31 32 32 34 35 36 37 36 36 37 37 37 37 36 34 33 30 27 26 25 24 23 22 21 23 25 27 28 29 28 26 25 24 23 22 20 17 17
28 30 31 32 34 34 33 32 32 31 31 30 30 30 31 32 33 33 33 33 32 32 33 33 34 36 37 36 36 34 32 32 32 33 32 32 33 33 32 31 32 34 34 34 34 35 36 37 38 36 35 34 33 33 32 30 27 26 26 26 24 22 23 27 30 30 29 29 28 26 24 22 20 19
24 26 28 28 29 30 32 33 34 35 36 36 37 37 37 37 38 37 36 35 35 35 36 35 36 39 39 37 36 34 32 33 34 33 31 31 32 34 32 31 33 35 35 34 34 34 34 35 36 36 36 35 34 35 35 32 29 29 30 30 27 23 23 26 29 31 32 31 30 29 26 24 24 22
20 22 23 25 26 27 28 29 31 32 33 33 33 34 35 37 39 39 38 38 38 38 37 36 37 38 36 35 35 34 33 33 34 32 31 31 32 31 29 28 31 33 33 34 35 35 35 35 35 36 38 37 36 36 34 31 30 32 32 32 31 30 29 28 29 31 32 32 32 32 30 28 27 26
24 25 26 26 26 27 27 27 27 27 27 25 24 25 28 32 34 35 35 37 39 39 37 36 36 36 34 33 33 31 31 32 32 29 29 30 30 28 27 27 29 30 29 31 32 33 34 34 35 36 38 39 40 38 34 30 31 34 34 33 31 31 31 32 31 30 31 33 34 34 32 30 29 28
28 28 28 28 28 28 27 27 26 25 24 21 20 22 24 27 29 32 33 35 38 38 37 36 36 35 33 33 32 30 30 31 29 27 27 29 29 27 25 26 27 27 28 30 31 31 31 33 33 34 36 38 40 41 39 35 34 35 34 32 32 32 32 33 32 31 33 34 34 34 34 34 33 32
27 26 25 26 28 28 28 28 28 27 25 23 21 23 24 25 26 29 32 33 34 35 35 35 35 34 33 32 31 30 29 28 25 24 24 25 27 27 26 25 26 26 26 29 30 29 30 31 30 29 29 29 30 33 38 40 38 35 32 30 32 34 33 32 32 32 33 34 35 34 32 33 35 35
27 26 24 25 26 26 27 29 29 28 27 27 25 25 26 26 26 28 31 33 32 31 31 31 31 31 31 31 30 29 28 25 24 23 23 23 25 26 25 25 25 25 26 29 31 30 29 30 30 26 23 18 15 18 26 34 37 37 33 31 32 34 34 32 30 31 33 36 38 37 34 34 37 39
26 26 26 26 26 26 27 29 30 29 28 28 28 27 27 28 29 31 32 33 33 31 30 29 27 26 26 27 27 28 26 24 23 23 23 23 23 24 24 23 22 22 24 28 31 31 30 30 30 27 20 12 8 11 18 24 29 33 35 35 34 34 34 31 28 30 34 37 39 40 39 38 39 39
23 24 25 26 27 27 28 30 30 30 30 30 29 30 31 32 33 33 33 33 34 35 34 33 31 30 28 26 25 23 21 21 22 24 24 24 24 25 26 25 23 22 23 27 31 32 30 29 29 26 19 12 10 13 15 15 19 27 34 38 38 36 33 30 30 32 35 37 40 42 43 41 40 39
23 24 26 27 27 28 28 29 29 29 29 30 30 31 32 33 34 34 34 34 34 34 34 34 33 31 30 29 28 26 24 23 21 21 22 23 25 28 28 26 23 22 22 27 32 32 30 31 33 33 29 25 21 17 15 15 20 27 31 34 37 37 34 34 34 35 36 38 40 41 40 38 38 36
21 23 24 25 25 26 26 28 28 28 29 30 31 32 33 33 33 34 34 34 34 34 34 33 31 29 27 28 29 29 28 26 25 26 27 25 24 24 25 24 22 19 19 25 31 32 32 34 34 32 32 33 31 26 22 23 29 34 33 31 33 36 37 38 38 36 37 39 38 36 34 33 32 30
22 22 22 22 22 22 22 23 23 23 24 25 27 29 31 33 35 35 35 35 33 32 30 29 27 26 25 26 26 26 27 27 28 28 25 20 20 23 24 22 21 19 20 25 32 36 39 38 31 26 26 30 30 26 20 18 24 33 36 34 33 34 36 39 40 39 39 39 37 33 31 31 30 28
24 24 24 24 24 24 24 25 24 23 22 22 22 23 22 22 24 29 33 33 30 26 24 23 23 23 24 25 25 26 27 27 24 19 15 17 23 25 22 19 20 22 24 29 37 43 45 41 32 24 23 24 21 15 12 15 22 30 35 35 34 33 34 37 40 42 42 41 38 34 30 25 20 19
25 25 25 25 25 26 26 26 25 24 23 23 24 26 26 23 20 18 19 21 20 19 20 21 22 23 23 22 21 21 22 21 19 17 18 21 22 19 17 18 22 26 29 35 43 47 45 39 30 22 21 24 20 14 17 26 31 31 33 36 35 33 33 35 38 43 45 46 45 42 39 32 23 21
26 26 25 25 26 27 26 25 25 24 24 25 25 26 26 26 24 20 16 14 13 12 13 15 19 21 21 19 19 19 20 20 20 20 20 20 18 18 20 22 24 27 32 37 40 41 38 32 26 20 21 25 24 19 23 30 31 29 32 35 33 33 34 34 36 41 47 50 49 46 47 46 43 41
26 27 26 25 25 25 25 24 24 24 24 25 25 24 24 24 25 23 20 17 15 13 10 8 9 10 11 11 12 14 16 18 19 19 20 21 21 21 23 24 25 28 34 35 34 35 34 29 25 22 22 24 26 27 29 31 30 30 32 33 33 35 35 33 33 37 43 50 53 51 49 50 51 51
Wind_Direction
216 231 240 261 269 267 294 327 344 2 3 14 32 27 30 40 55 13 337 316 309 346 22 196 206 233 290 303 287 264 259 269 271 266 289 327 331 317 302 298 307 312 311 314 327 341 346 350 351 350 347 347 351 355 355 353 353 353 354 354 355 358 359 359 359 2 5 4 5 8 7 0 358 357
222 235 233 243 260 265 274 297 313 310 316 325 320 356 13 354 353 97 317 302 315 359 14 16 295 305 310 305 301 291 276 274 271 265 288 322 330 321 306 296 300 306 304 305 314 326 336 346 353 353 352 350 350 350 352 354 356 356 354 353 355 358 358 359 359 1 5 6 7 11 13 12 12 11
224 236 237 241 245 248 260 272 295 297 288 293 285 255 270 323 311 309 355 297 289 324 352 354 343 339 332 323 315 309 301 295 286 278 297 322 326 319 309 299 297 300 299 299 304 314 322 337 348 349 350 351 351 351 349 352 357 358 355 353 355 357 357 358 358 359 5 7 8 12 16 23 27 22
221 232 239 246 240 230 238 250 270 292 274 268 272 246 245 276 279 282 296 266 279 300 321 325 318 331 339 332 326 325 320 313 305 297 305 319 319 315 310 303 297 296 297 296 297 302 308 323 338 339 340 343 346 352 351 351 357 359 357 353 353 356 356 356 356 358 3 8 9 11 15 21 27 21
224 238 238 239 243 240 242 244 253 275 267 252 261 252 245 264 271 269 271 270 282 294 304 309 306 315 326 322 321 321 311 302 306 306 307 312 314 314 315 312 303 296 297 296 295 296 299 311 322 327 331 332 334 345 351 352 356 358 357 354 352 353 354 353 354 356 2 7 9 10 13 16 19 18
226 243 243 236 237 240 246 247 248 255 257 255 264 258 246 249 254 255 259 260 267 283 296 306 306 304 307 308 311 312 304 301 305 305 304 304 305 311 315 317 315 312 308 302 296 293 296 305 312 315 318 320 322 332 343 349 353 355 355 353 351 350 351 351 352 355 360 5 8 9 11 14 15 14
226 237 245 238 230 231 241 248 250 250 249 253 263 266 257 250 247 248 252 253 253 265 282 294 296 295 293 291 293 295 296 300 302 301 303 304 305 307 308 308 311 315 314 310 301 296 297 302 306 309 310 309 310 316 328 339 345 349 351 350 349 348 348 348 349 353 357 2 6 9 11 12 12 10
229 233 238 238 232 233 239 246 252 251 246 249 258 268 271 266 261 254 251 256 256 254 262 279 287 291 290 288 291 294 298 303 305 300 299 300 300 299 298 297 300 304 307 308 306 301 297 300 304 305 305 304 303 305 312 321 330 337 342 346 348 348 347 346 347 350 355 359 3 7 12 12 10 7
231 232 235 237 236 237 240 244 251 255 250 249 259 266 268 273 278 265 254 256 255 246 252 271 282 288 293 294 296 299 301 304 304 297 291 291 291 292 293 290 286 288 291 298 303 301 296 299 303 303 302 300 299 299 300 304 312 321 329 339 345 347 347 345 345 347 351 355 359 5 12 14 12 10
233 234 235 237 237 236 237 240 247 254 252 248 254 262 265 268 275 272 260 255 251 247 255 269 279 286 291 294 296 300 302 301 299 294 290 287 286 289 293 287 275 277 287 295 300 299 298 300 301 299 297 296 295 295 295 295 299 304 310 325 340 345 346 345 343 345 348 352 356 3 11 12 13 14
237 238 238 240 241 240 238 238 241 247 251 250 251 255 261 265 269 273 273 267 261 262 265 270 275 281 286 288 291 297 304 301 294 288 284 283 286 289 291 286 275 275 286 295 299 300 300 299 298 295 291 291 292 292 291 290 291 293 295 305 328 342 345 344 342 342 344 348 354 1 7 10 11 13
239 240 240 241 242 243 242 242 240 240 244 247 250 252 255 259 261 266 270 271 270 268 268 267 269 274 278 280 284 290 293 290 286 285 282 283 288 291 290 285 275 274 284 290 293 299 302 300 298 295 290 290 292 291 290 288 286 285 283 288 311 333 341 342 340 340 340 344 351 357 3 8 10 8
239 240 241 242 244 244 244 243 242 242 242 241 243 247 249 251 253 257 261 265 266 266 266 267 270 272 272 274 278 282 283 282 285 290 288 286 288 289 286 280 272 274 283 284 286 297 302 299 297 295 292 294 296 293 291 288 284 280 276 275 291 318 333 338 338 338 338 340 347 353 359 6 9 4
241 241 241 243 246 249 249 246 244 245 245 244 243 243 243 243 245 247 250 253 256 258 260 264 268 270 271 273 274 275 279 284 287 290 289 288 289 287 281 275 271 273 277 279 288 300 303 298 294 292 292 295 298 297 295 294 289 280 269 266 276 302 322 332 337 338 336 336 342 348 353 1 6 4
241 242 242 243 245 248 249 249 248 248 247 247 247 245 242 241 240 241 243 246 248 250 251 256 259 262 266 271 273 273 277 281 283 287 288 287 289 287 277 272 272 275 279 285 294 300 301 297 292 288 289 293 297 298 299 299 294 281 266 260 268 288 310 323 334 337 332 330 335 342 346 353 2 3
238 240 242 244 245 247 249 250 250 250 249 249 249 248 246 243 241 241 242 243 245 245 246 249 252 254 259 264 268 270 272 275 278 285 287 285 286 286 277 272 277 286 295 296 294 294 295 295 291 289 291 294 295 297 297 297 294 282 265 257 261 276 298 313 324 332 330 326 329 335 339 343 354 2
236 236 238 240 244 246 248 251 254 256 255 253 251 249 249 247 244 244 244 246 247 247 248 248 249 253 255 258 262 265 266 269 272 276 278 279 282 284 282 281 286 292 296 294 288 287 289 290 288 289 294 296 294 293 292 292 292 281 263 255 258 267 283 299 314 324 326 323 324 329 332 335 344 358
238 238 237 238 241 243 244 247 253 259 262 260 256 252 249 248 248 246 245 246 248 248 249 249 251 255 256 256 260 263 263 262 263 266 270 275 279 283 284 286 288 290 290 286 281 279 281 285 286 287 292 296 294 290 287 287 289 280 262 254 255 260 269 283 300 315 321 320 320 324 326 327 334 351
240 242 242 241 241 242 243 244 247 253 257 259 260 257 253 252 251 250 249 249 249 250 251 252 254 257 259 260 262 264 263 260 260 262 266 272 279 283 285 285 285 285 283 278 271 270 278 283 282 283 290 294 291 289 284 281 283 276 262 255 254 255 261 272 286 303 312 314 316 318 321 321 325 341
239 242 244 245 245 244 245 246 247 248 250 252 254 255 255 256 254 254 255 255 254 255 255 257 259 261 264 266 267 268 267 265 265 264 265 270 275 279 282 282 280 280 280 278 269 264 274 281 278 279 287 288 284 283 278 274 276 272 261 254 252 251 255 264 274 289 300 305 310 312 314 315 317 329
239 240 242 245 247 248 248 249 249 249 248 248 249 249 251 253 254 255 257 257 257 257 257 260 263 266 268 269 269 270 269 269 268 264 262 267 269 270 273 274 275 277 279 280 275 261 266 276 277 278 284 282 277 277 273 268 269 266 257 251 249 249 252 257 265 275 286 292 298 303 306 307 309 314
240 241 242 244 246 248 250 250 251 250 248 247 248 248 248 247 248 251 253 253 254 256 257 259 262 265 267 268 267 267 267 268 267 261 258 262 264 261 260 263 270 277 278 279 277 260 260 271 274 275 280 277 271 270 266 263 262 258 252 246 244 246 247 250 255 264 273 282 286 291 297 298 297 297
243 243 243 244 246 249 251 253 253 252 250 249 249 249 247 245 247 250 249 246 248 251 253 256 259 261 265 267 268 269 269 268 265 261 260 261 257 254 255 258 263 272 276 277 276 264 264 271 271 271 273 269 265 262 257 256 258 255 250 246 244 245 244 243 247 253 261 270 276 280 286 288 284 282
247 247 247 247 248 250 252 254 256 256 255 255 254 251 247 246 250 253 251 247 248 250 251 255 258 260 264 267 268 271 271 269 266 263 262 260 255 251 251 255 256 254 265 273 274 266 268 273 272 271 269 260 261 262 255 254 255 250 247 245 244 244 242 239 241 246 251 258 265 271 275 274 272 272
251 251 251 252 252 252 253 254 256 257 258 258 259 256 252 251 255 257 256 254 254 254 255 257 257 258 260 262 265 268 270 271 269 267 264 262 257 252 249 250 251 250 260 271 272 264 263 267 268 270 269 262 261 262 258 254 249 246 245 245 245 243 240 239 241 242 244 248 254 261 264 261 260 265
255 255 256 257 257 257 258 259 259 261 262 262 262 261 259 259 260 260 260 259 259 258 258 258 257 257 257 258 261 264 267 270 270 268 265 263 261 257 254 252 250 251 261 274 274 265 260 261 262 264 263 261 262 261 258 256 253 246 241 241 243 243 239 239 240 241 242 243 245 252 255 248 246 254
259 258 259 262 263 262 261 262 263 264 265 265 265 265 264 264 263 262 261 261 260 260 260 259 258 258 256 255 258 260 263 267 269 268 267 265 263 261 259 257 255 256 264 273 273 267 261 260 262 262 259 258 259 258 255 257 258 250 243 242 244 242 238 238 239 240 241 241 242 246 246 238 233 240
264 262 260 259 260 262 262 261 260 261 262 263 265 266 266 265 265 263 262 262 262 261 260 259 259 259 258 256 256 257 259 263 266 269 269 266 263 261 260 260 259 260 264 268 268 265 261 258 259 261 259 257 255 253 254 256 256 256 255 250 244 240 238 236 235 237 237 236 237 240 241 236 229 228
264 264 262 259 258 259 262 263 261 260 261 263 265 265 265 264 264 264 264 264 263 261 260 259 259 260 260 259 259 260 261 261 262 263 264 265 265 264 263 262 261 260 262 263 264 264 261 258 258 258 258 256 253 252 254 256 256 256 256 250 246 247 244 238 235 234 232 230 232 235 238 237 233 229
264 263 264 264 263 262 262 262 263 263 264 265 268 269 269 268 266 266 266 266 263 259 257 257 258 259 261 263 263 263 262 260 260 260 260 263 265 266 268 270 269 267 265 264 264 263 261 259 259 257 254 253 252 252 253 255 255 255 255 251 249 250 247 239 234 232 231 230 231 233 236 236 234 234
273 271 271 270 269 268 266 264 263 265 267 269 271 272 272 271 270 268 267 267 265 262 258 254 255 257 260 261 262 261 259 258 258 258 258 259 261 264 267 271 273 273 272 271 270 268 264 262 261 257 252 250 251 252 252 252 251 252 255 253 246 242 245 242 235 231 231 231 231 232 233 232 231 233
287 286 285 280 276 273 270 268 267 267 269 272 275 277 275 272 269 268 267 266 265 263 259 254 252 253 255 256 258 259 259 259 259 259 258 257 258 261 263 265 267 269 270 270 269 268 267 265 263 259 255 251 251 252 252 249 248 249 253 253 248 244 244 243 239 235 231 228 228 230 230 229 229 231
287 288 290 290 286 280 275 272 271 270 271 274 279 283 282 275 268 264 262 261 261 260 258 253 251 250 251 253 255 256 258 261 263 264 262 260 260 260 259 259 262 266 268 269 269 268 267 266 264 262 259 255 253 252 249 246 247 248 249 250 248 244 241 240 240 237 229 223 223 226 227 229 231 232
283 283 284 285 285 284 280 275 270 267 266 270 279 287 287 279 271 264 260 259 259 258 256 253 251 251 250 252 253 254 256 260 263 265 266 265 264 262 259 260 264 267 269 271 271 269 268 267 265 262 259 256 254 252 248 245 247 250 250 248 247 247 246 243 238 234 229 225 223 222 223 228 231 232
286 284 281 280 281 283 281 277 272 269 267 269 278 286 286 280 275 269 263 261 259 257 255 254 252 250 249 250 252 254 257 262 265 266 267 267 265 263 262 264 268 272 274 274 274 273 270 266 262 258 255 253 253 254 250 245 244 249 250 248 247 248 249 246 239 231 227 225 222 219 221 226 228 230
293 290 285 281 281 282 281 280 278 277 275 274 275 276 273 271 272 270 267 264 261 256 254 254 252 251 251 252 254 256 258 261 263 265 265 265 263 263 264 265 270 276 277 276 276 274 270 263 256 250 249 249 250 256 254 247 244 246 247 248 248 248 247 247 241 230 224 221 219 218 221 227 229 229
299 293 286 282 281 280 280 281 282 281 281 281 279 275 269 267 269 269 268 265 262 259 257 256 255 254 253 253 255 257 258 258 260 261 260 258 259 261 262 263 268 274 276 278 279 275 269 262 253 245 245 251 253 257 258 253 248 246 246 246 247 248 246 242 235 227 224 223 221 221 224 229 233 235
307 299 290 283 282 281 279 279 280 278 277 276 274 272 270 269 269 269 267 263 261 262 262 260 257 256 254 253 253 254 253 254 254 253 252 251 249 248 248 250 253 258 263 269 271 268 264 259 254 248 247 251 253 256 262 259 250 248 248 246 245 245 243 237 230 228 227 224 224 227 228 230 235 240
312 306 296 287 282 281 278 277 277 277 276 273 268 265 264 264 265 265 263 261 260 261 261 260 259 257 255 253 252 251 250 249 249 250 250 246 241 242 246 250 253 258 263 266 267 265 258 250 246 241 235 233 242 260 281 283 269 264 260 253 246 243 240 235 231 230 230 228 227 228 229 231 236 241
320 316 308 297 291 287 283 279 277 274 273 272 268 264 261 261 261 262 261 260 260 259 258 259 259 258 254 251 248 246 244 242 243 245 246 243 243 248 255 259 261 267 273 273 272 270 263 255 251 246 240 237 242 256 273 277 271 267 265 258 250 245 242 240 235 230 230 231 229 225 224 226 230 234
331 330 326 321 319 316 312 308 302 296 290 285 280 274 267 262 260 260 261 260 259 257 255 255 256 255 252 246 240 237 236 237 239 243 247 247 247 248 249 252 257 260 262 264 266 265 263 261 261 260 256 250 245 249 261 271 269 267 265 261 255 249 245 243 241 239 237 234 226 219 219 222 224 226
332 329 326 326 327 326 327 330 331 329 327 323 319 315 308 291 275 267 263 260 257 255 254 256 259 259 256 251 247 244 243 243 245 251 254 247 241 241 245 251 256 255 253 255 259 262 264 265 264 264 269 268 256 243 249 261 263 265 267 266 261 254 247 242 242 244 245 241 230 220 216 214 213 218
331 329 325 324 323 322 323 327 328 328 330 331 331 333 334 331 322 305 286 273 268 265 263 263 266 267 263 258 253 249 247 248 251 255 255 247 244 253 267 268 263 259 256 256 259 263 266 269 271 269 269 268 257 230 230 248 255 258 262 265 264 259 253 247 241 240 242 242 240 237 232 224 217 220
330 329 327 325 324 322 323 325 325 324 325 326 328 330 330 328 328 328 326 319 311 301 287 275 272 269 265 260 256 253 253 256 259 263 267 268 270 276 275 266 261 260 257 256 260 264 265 268 270 264 254 256 254 236 230 242 251 255 259 263 265 262 258 252 244 237 235 236 238 240 240 239 239 244
329 328 327 325 325 324 324 324 324 323 323 323 325 326 325 323 321 322 326 329 327 324 319 306 286 275 272 271 270 267 266 267 269 271 275 277 278 274 268 259 252 251 251 252 257 263 264 263 261 253 245 248 250 242 237 243 251 255 259 264 265 262 259 254 245 237 234 235 236 237 237 240 243 247